TOMORROW-S7 (63631 NORAD) Tracking and Keplerian Element Data

This shows tracking and keplerian element data for the satellite.

Feedback or suggestion? Click here.




ElementValue
Catalog63631
NameTOMORROW-S7
Epoch Orbit3628
Epoch Day354.00855654
Epoch Year2025
RAAN185.6947
Inclination45.3919
Eccentricity0.0001332
Argument of Perigee13.2162
Mean Anonmoly346.875
Mean Motion14.98760701
Decay Rate1.03E-05
L11 63631U 25081B 25354.00855654 .00001030 00000+0 10291-3 0 9996
L22 63631 45.3919 185.6947 0001332 13.2162 346.8750 14.98760701 36281



Live tracking and technical data element details for TOMORROW-S7 (NORAD 63631). TOMORROW-S7 can be tracked NOW for your location showing map with azimuth and elevation plus other details from your city location.







IsCatalogInMostPopularTable: catalog: 63631, numindb: 5
Update: records affected: 1



GetName: 63631 TOMORROW-S7

Hit Count: updated at: Sat, 11 Apr 2026 21:56:16 GMT